Temp
25 24 23 24 24 26 27 26 25 25 26 25 24 25 25 24 24 24 23 23 23 23 24 23 23 22 22 22 22 21 21 21 21 21 21 21 22 23 23 23 24 24 24 24
24 23 24 24 24 26 26 26 25 26 26 25 26 25 25 25 24 25 25 24 24 24 23 23 22 22 22 22 22 22 22 21 21 21 22 22 23 23 24 24 24 24 24 24
23 26 25 25 25 26 25 25 25 26 26 26 26 25 25 25 24 25 25 26 25 25 24 23 22 22 22 22 22 22 23 22 22 22 22 22 22 23 23 24 24 25 24 24
24 25 27 26 26 24 25 25 27 27 26 24 26 24 25 25 24 24 25 25 25 25 25 24 23 22 21 22 23 23 23 23 23 22 22 22 22 23 24 24 25 25 25 24
25 26 25 25 25 25 26 27 27 27 24 26 25 24 24 23 24 24 25 25 26 25 25 24 24 23 22 22 22 23 23 23 23 23 23 22 22 23 24 24 25 25 25 25
25 26 26 26 26 26 27 27 23 20 21 22 23 24 23 25 26 26 25 26 26 25 25 25 25 25 23 22 22 22 23 23 23 23 23 23 23 23 23 24 24 25 25 25
25 26 27 28 28 27 25 23 22 23 22 22 21 23 24 26 25 26 25 25 25 25 25 24 23 24 23 22 22 21 22 22 23 22 23 23 23 23 23 24 24 25 25 25
24 25 26 27 26 26 24 23 21 25 22 23 21 23 25 26 26 25 25 25 25 25 25 25 24 24 23 23 22 21 21 22 22 23 23 23 23 23 23 24 25 25 25 26
23 24 26 27 27 28 26 24 23 20 19 21 22 23 25 26 27 26 25 25 25 25 25 25 23 24 23 23 23 22 22 22 23 24 23 23 24 24 24 24 24 24 25 25
24 24 26 29 29 27 27 24 25 20 25 24 22 24 24 26 28 27 26 24 24 25 24 24 23 24 24 23 23 23 22 23 24 24 23 24 24 25 24 24 24 24 24 25
22 24 27 29 27 26 25 24 21 20 20 22 22 23 22 25 26 26 24 24 23 24 24 24 23 24 24 24 23 23 23 22 23 23 24 24 24 24 25 24 24 24 24 24
24 21 23 24 26 27 25 24 22 22 24 19 20 23 26 24 24 23 22 23 22 22 23 24 22 23 23 23 23 23 23 22 22 23 24 24 24 24 24 24 24 24 24 24
24 21 21 23 24 26 27 24 22 19 19 20 22 26 24 23 23 22 22 22 22 22 21 21 20 21 22 23 23 23 23 23 22 24 23 23 23 24 23 24 24 24 24 24
22 18 22 22 24 24 25 26 22 22 20 21 21 25 26 26 26 24 22 22 21 21 20 19 19 20 21 23 23 23 23 23 23 23 23 22 22 23 23 24 24 24 23 23
20 21 21 21 21 23 24 26 24 24 24 26 26 23 25 24 24 24 22 21 21 20 19 19 19 19 20 22 22 23 22 23 24 23 23 23 23 23 23 23 23 23 23 23
18 21 20 22 23 23 24 25 25 24 25 23 25 24 23 24 22 21 21 21 21 20 20 20 20 20 20 20 22 23 23 23 24 23 23 23 22 23 24 24 24 24 23 23
20 18 19 20 21 21 22 23 25 25 25 25 25 26 27 26 23 22 21 20 21 20 20 20 20 21 21 22 23 23 24 23 22 22 22 21 23 23 22 21 22 22 21 21
17 18 16 18 20 21 23 24 25 25 26 26 26 26 26 25 23 21 20 20 20 20 20 20 19 20 21 23 24 23 23 22 21 21 20 20 22 20 20 19 20 20 20 20
16 16 18 19 18 20 24 24 24 23 26 25 26 24 24 21 22 22 20 20 21 20 19 19 21 20 20 20 21 22 20 20 19 17 18 18 19 19 19 19 19 19 19 18
14 15 18 15 18 19 22 22 21 21 22 20 20 22 22 22 23 24 19 20 20 18 19 19 19 19 19 20 19 18 17 16 15 15 16 17 18 18 18 17 18 17 16 16
17 16 16 16 17 18 20 19 19 23 22 18 19 20 21 20 21 20 19 19 19 18 19 20 19 18 18 18 18 16 16 13 13 15 16 16 18 17 16 15 15 15 15 15
16 16 15 14 17 18 18 20 22 18 16 17 18 19 20 19 20 21 20 19 18 18 18 19 19 18 17 17 17 15 16 12 14 15 14 15 14 14 14 15 14 14 13 12
16 15 15 15 16 16 17 18 18 17 16 16 16 17 17 19 20 20 19 19 18 18 18 19 18 18 17 17 18 13 12 14 14 14 13 14 14 14 14 15 13 10 10 10
16 14 15 16 18 18 17 17 17 17 16 17 17 17 17 18 19 19 18 19 17 18 18 17 17 17 16 16 15 14 14 15 15 14 13 13 14 13 13 12 10 10 10 10
14 14 15 14 15 16 18 17 18 17 17 17 17 17 17 18 19 18 18 17 17 17 17 17 17 17 16 16 15 14 15 15 13 12 12 13 14 13 12 12 12 12 10 10
13 14 14 16 14 15 15 17 17 16 17 17 17 17 17 18 18 19 17 17 17 17 17 17 17 16 15 15 13 13 14 15 15 12 12 13 13 12 13 13 12 12 12 11
Height
774 791 802 795 792 789 790 797 801 789 779 788 790 784 781 779 781 781 781 782 783 782 783 788 792 796 800 804 807 811 815 817 820 824 828 831 831 834 837 840 842 844 846 848
787 796 784 783 788 790 794 799 802 787 777 786 784 786 774 773 772 770 772 775 776 777 782 785 788 793 795 799 804 808 812 815 818 821 825 828 831 832 835 838 841 843 845 847
794 778 773 782 791 794 797 802 797 796 782 779 783 786 778 767 766 766 764 764 768 770 775 779 783 787 791 795 799 803 808 812 816 820 824 827 830 832 833 835 838 840 843 845
784 771 774 783 788 793 805 780 783 787 795 815 783 821 783 772 771 764 761 761 760 763 767 771 776 782 785 788 795 800 805 810 813 818 822 824 826 829 831 834 836 839 841 844
782 775 781 787 784 782 789 772 780 783 798 797 798 813 788 775 775 761 753 751 750 752 756 761 767 771 775 784 789 795 801 806 811 813 818 822 825 828 830 833 835 837 839 841
771 760 766 768 766 769 766 778 794 805 808 828 802 807 799 781 759 746 741 741 741 745 749 754 758 766 772 780 786 791 796 800 806 810 813 817 821 825 828 831 832 835 837 838
776 768 756 753 767 765 777 799 830 829 833 832 809 811 789 755 745 739 738 734 735 737 743 750 757 762 769 776 781 787 792 797 801 806 809 813 817 821 825 828 830 832 834 835
794 795 763 749 760 772 781 793 824 827 839 822 808 809 779 742 732 728 726 726 730 735 737 742 748 755 761 768 774 781 786 791 797 801 804 809 813 818 821 825 826 828 830 832
797 788 751 749 745 751 775 792 780 817 825 826 811 788 756 739 732 726 728 727 728 728 731 735 743 750 756 762 767 772 777 783 790 795 800 804 808 812 816 820 823 825 827 829
769 788 757 743 741 748 759 765 793 811 812 821 814 799 786 752 737 727 728 728 725 724 728 732 737 742 749 755 760 767 773 776 781 789 795 800 804 807 811 816 819 821 824 826
764 774 758 746 758 766 770 778 788 796 808 814 822 801 756 743 731 730 726 723 723 720 722 725 731 738 743 750 756 761 766 772 778 783 789 795 798 802 806 810 813 816 819 821
755 778 784 769 744 741 751 765 776 797 796 811 810 787 729 730 726 727 722 717 717 717 717 721 726 732 737 742 748 754 760 766 770 777 783 787 792 797 801 803 806 810 812 815
756 781 794 775 759 745 749 755 764 779 787 803 800 771 728 729 727 721 720 714 713 714 718 722 726 729 733 737 743 750 755 760 768 771 777 784 788 792 795 797 800 803 806 809
752 781 779 792 772 761 759 748 759 764 790 789 784 756 732 724 720 716 717 713 713 714 718 722 726 727 729 734 737 743 750 756 763 767 772 776 781 785 788 792 794 798 800 802
759 774 771 768 762 759 754 746 751 756 756 757 750 760 736 725 720 714 713 714 714 718 719 720 722 724 727 731 736 741 747 750 757 763 767 771 776 780 786 789 791 793 794 795
765 773 772 766 753 753 753 744 743 745 742 750 744 744 719 714 716 714 712 714 716 717 718 719 720 723 727 730 734 739 742 746 750 756 762 768 775 780 784 788 788 788 789 790
765 776 781 782 766 764 764 747 738 734 731 732 746 725 709 708 712 711 711 712 714 713 715 717 719 721 722 725 728 730 735 741 747 752 760 766 769 771 778 782 784 784 786 786
770 774 783 784 772 783 744 726 724 729 720 717 718 712 706 705 706 704 703 705 707 709 711 714 716 718 721 722 725 728 734 740 746 752 757 763 765 770 776 781 783 783 784 784
760 771 776 781 783 763 738 728 731 735 724 713 713 713 709 710 706 702 698 698 696 699 705 709 714 718 721 722 724 724 731 736 742 753 757 762 765 770 770 778 781 782 782 784
762 765 769 785 778 777 747 730 727 729 744 726 720 717 715 713 725 705 694 691 696 700 704 709 714 718 722 725 727 731 731 736 746 751 754 759 762 766 774 777 778 781 783 783
765 769 772 775 772 758 734 732 726 745 743 728 722 718 714 718 707 700 695 695 691 697 703 710 715 721 724 726 728 733 729 736 744 753 754 760 762 772 778 779 781 781 781 780
764 769 773 776 771 766 734 728 733 737 732 728 724 719 714 707 705 699 695 699 696 696 702 707 710 718 726 728 731 731 733 753 745 755 757 761 771 777 780 779 780 780 779 780
764 756 760 760 755 739 735 733 728 729 732 728 727 718 712 704 699 698 696 696 703 697 702 707 712 716 721 724 728 733 742 746 754 756 758 764 770 775 776 775 778 780 780 781
750 752 755 751 738 733 730 729 727 727 726 722 717 713 709 702 696 694 694 695 702 705 704 709 716 719 725 728 731 736 741 748 751 756 763 766 770 773 776 777 781 780 782 780
752 751 751 752 742 734 725 724 722 723 721 718 716 712 707 700 695 694 694 695 701 706 708 712 717 720 728 732 738 743 748 753 758 763 765 768 770 775 778 780 780 779 780 781
747 747 751 741 737 736 730 722 720 720 717 712 710 705 699 698 697 695 694 694 699 705 709 714 718 722 729 736 741 746 751 756 757 762 767 770 772 775 778 778 780 781 782 784
Wind_Speed
1 3 7 9 6 3 1 2 6 3 4 5 12 10 9 11 10 11 11 12 12 14 14 19 24 25 24 25 23 23 24 24 24 22 21 18 20 16 13 12 10 11 10 10
4 8 6 6 4 3 3 3 7 6 3 5 3 9 9 11 20 19 17 15 15 13 9 17 22 25 28 29 27 25 26 26 26 26 24 20 20 17 14 12 11 10 13 13
6 4 5 7 5 4 3 5 4 8 2 3 4 8 5 6 6 14 16 17 14 17 14 14 20 26 27 30 33 31 30 29 28 27 24 19 15 15 12 14 11 10 12 14
5 5 3 3 5 7 5 8 7 3 2 3 4 4 5 5 7 12 16 17 17 16 15 15 20 23 29 34 35 34 32 32 30 29 27 25 21 19 19 15 13 11 13 13
8 6 5 4 8 8 10 5 6 3 5 1 2 2 7 3 6 13 15 18 19 18 18 17 20 30 34 29 35 37 35 34 33 33 31 28 26 23 19 16 15 14 14 15
7 3 6 9 6 9 4 3 6 4 3 1 7 6 6 5 8 6 6 17 18 16 17 17 29 27 27 27 29 33 37 36 35 35 34 33 30 27 21 18 16 17 16 16
5 6 4 5 2 2 5 5 3 3 3 6 2 3 9 8 11 11 8 13 15 14 15 14 15 20 23 26 29 30 34 36 37 36 34 34 33 29 28 22 16 15 17 16
4 7 6 4 9 7 6 8 6 5 4 5 3 6 6 8 8 8 9 8 11 12 13 15 18 24 27 30 30 31 34 36 37 38 37 34 33 32 29 25 20 17 17 20
4 5 4 4 3 9 3 3 4 7 3 3 4 8 9 6 9 6 6 7 13 14 15 16 15 25 26 28 32 37 36 36 38 40 38 37 34 32 29 25 23 20 17 18
7 5 6 4 3 2 5 7 3 2 2 5 4 5 6 9 11 8 6 9 11 11 13 12 14 25 28 30 35 31 30 36 40 39 37 37 35 33 31 26 26 24 21 18
6 3 10 2 4 7 2 1 5 4 4 6 2 6 8 10 10 9 8 9 10 13 13 13 12 21 26 27 29 33 31 33 34 36 35 35 35 34 34 30 28 26 24 21
5 5 6 12 3 2 6 8 6 5 5 1 4 7 6 10 8 6 11 8 8 8 11 12 10 20 24 27 29 31 32 31 35 35 36 34 33 33 34 32 31 29 26 23
4 1 3 10 5 2 5 5 5 4 3 7 5 8 1 5 8 8 9 7 6 8 7 6 7 10 20 23 25 27 29 31 27 36 34 34 33 30 36 34 31 29 30 26
5 3 6 6 6 2 5 4 5 6 4 5 6 8 12 10 9 8 7 6 6 5 6 6 6 7 15 21 24 27 28 29 28 29 30 30 33 33 32 30 27 26 25 28
4 5 3 6 8 4 6 6 6 7 5 6 5 8 9 8 7 5 6 6 5 6 7 8 9 8 13 19 21 23 24 31 31 29 27 30 28 28 25 23 20 20 23 25
2 1 1 4 5 3 5 8 6 6 3 6 4 6 9 4 2 4 8 5 4 6 7 6 7 7 10 18 22 24 27 30 31 29 28 25 18 14 15 18 15 16 17 21
2 4 2 4 4 7 6 8 8 7 5 7 5 9 3 4 7 7 7 8 8 8 9 8 8 7 12 19 27 30 29 28 27 26 24 19 16 7 5 10 13 12 12 13
6 4 4 4 4 5 7 5 6 8 5 4 5 6 6 4 1 4 7 8 10 9 9 8 6 10 12 16 22 22 16 20 21 20 19 20 19 18 12 9 7 6 4 6
6 5 3 4 6 5 12 4 4 4 4 0 2 7 4 4 3 6 8 9 12 11 8 8 12 11 8 5 14 20 23 26 24 22 21 23 25 22 16 11 7 3 2 5
5 4 4 3 6 9 9 3 4 3 5 6 7 6 4 1 1 6 8 9 8 7 13 13 11 14 11 11 13 18 21 28 25 28 28 24 22 19 15 11 8 5 4 6
1 1 5 4 4 6 3 8 3 4 4 9 5 9 4 6 5 5 6 5 6 10 15 15 17 16 16 19 23 20 25 12 32 31 29 26 23 19 16 15 12 10 10 11
6 5 4 2 2 6 3 5 3 2 4 6 6 7 9 9 8 2 5 4 7 12 13 14 9 10 21 26 25 17 32 21 32 32 31 29 25 22 19 17 15 16 15 17
2 6 4 7 5 2 2 5 3 2 3 5 5 8 12 13 6 8 7 7 4 10 13 16 13 10 8 12 16 28 30 30 30 29 29 27 25 22 19 18 16 16 16 15
2 2 2 2 3 3 8 4 5 4 5 8 10 8 8 9 6 6 7 6 6 6 12 16 16 14 14 15 18 26 30 26 27 27 26 26 25 21 17 17 14 16 16 17
4 4 3 4 7 8 5 3 4 4 6 6 6 6 6 6 5 3 6 8 7 9 12 17 16 17 16 21 25 33 33 31 30 28 26 25 24 21 19 18 17 18 16 14
5 6 4 9 8 7 8 6 4 5 9 7 5 9 8 3 6 3 5 7 13 16 16 15 17 20 20 24 31 34 34 31 31 29 27 26 24 19 17 17 15 15 14 13
Wind_Direction
96 108 198 201 183 192 224 256 278 227 209 178 208 240 223 192 199 204 205 209 210 214 212 198 203 207 209 214 211 213 209 207 206 205 204 203 208 216 226 216 233 228 220 214
43 232 208 148 181 195 244 287 278 300 201 186 271 235 227 195 207 204 203 208 211 220 190 192 190 193 204 211 213 211 213 210 207 206 205 205 211 224 221 216 234 233 219 222
166 260 135 156 168 180 216 211 227 240 41 214 359 306 205 241 210 215 216 215 206 208 197 189 186 191 195 203 212 212 211 213 209 210 208 208 223 231 227 232 237 231 220 217
227 263 228 143 236 155 258 210 239 264 102 247 160 264 285 218 223 221 217 211 209 199 201 192 185 189 193 205 212 213 211 213 211 210 212 216 220 223 229 230 237 233 226 226
239 184 180 160 215 160 236 167 218 217 179 43 263 68 268 171 245 236 214 207 210 201 192 189 192 194 199 197 204 211 213 213 215 214 218 222 228 232 233 239 235 240 237 240
234 220 168 200 189 184 107 102 39 50 103 62 233 172 274 241 227 264 204 205 202 197 197 196 195 196 191 194 197 203 211 216 217 219 219 225 230 229 230 233 236 242 248 241
336 250 236 179 175 150 98 77 341 348 9 217 54 132 241 267 247 237 220 209 199 188 188 184 182 183 181 187 193 200 206 213 218 221 220 221 225 229 231 233 237 245 251 248
186 317 174 196 179 175 173 156 161 219 203 243 89 228 251 249 282 257 225 193 188 183 186 186 186 188 183 188 190 196 205 210 216 221 223 223 226 230 234 237 240 252 261 252
164 272 277 194 193 138 194 183 185 107 38 68 241 291 299 294 291 262 225 177 192 192 188 190 182 189 189 187 193 200 205 209 214 220 223 225 227 232 236 237 241 248 258 257
218 284 229 237 152 72 163 158 80 5 186 259 276 281 237 292 282 291 235 215 199 194 197 190 186 188 188 192 197 199 203 207 214 220 223 227 230 234 239 242 242 243 251 255
140 143 257 51 186 191 113 210 57 127 137 181 226 260 220 233 247 274 260 230 208 199 191 194 185 191 194 188 190 197 198 203 209 217 221 226 231 236 237 241 244 244 248 249
202 159 242 231 279 187 177 192 143 129 237 202 160 264 226 235 270 274 280 257 198 201 193 193 182 180 184 187 190 193 199 200 206 216 217 221 230 235 237 238 244 245 248 250
181 302 347 335 358 21 198 187 151 120 95 192 156 269 82 286 289 276 270 251 193 191 181 175 167 181 187 188 190 194 197 203 197 216 216 220 224 237 240 238 242 247 248 251
117 131 173 199 220 258 293 194 162 139 132 175 218 266 288 282 260 275 280 251 197 145 154 146 154 180 187 190 186 188 194 201 200 205 212 211 220 225 237 239 241 247 252 250
97 193 216 261 257 217 242 261 178 170 218 164 226 199 255 268 273 249 244 229 171 140 150 168 169 172 178 183 184 187 188 196 209 212 211 223 227 233 237 244 246 250 250 253
15 249 325 276 276 330 266 262 229 247 180 263 231 253 221 252 214 217 218 220 180 165 166 168 168 169 172 176 177 186 192 202 207 207 217 219 219 240 255 254 240 241 246 243
133 127 80 267 340 321 284 223 214 218 203 169 178 227 208 237 225 234 226 177 187 179 167 169 167 176 184 189 194 199 202 201 194 202 210 194 202 191 221 214 219 222 232 248
156 157 149 223 357 261 246 284 254 223 247 239 295 253 234 257 253 231 206 188 176 176 164 179 177 187 192 193 201 209 190 181 176 180 176 169 178 159 153 159 169 186 227 266
191 144 204 182 204 284 300 354 27 354 272 155 250 297 322 1 347 280 211 200 194 174 166 165 180 186 178 141 187 170 155 155 156 155 147 147 153 154 144 155 156 172 274 289
90 77 161 161 178 220 220 305 335 263 258 348 353 318 303 146 8 258 194 180 178 158 163 153 152 147 149 151 144 131 132 132 135 141 135 133 130 126 137 130 118 93 40 3
14 18 190 205 236 282 260 274 284 168 245 318 313 308 251 218 214 265 219 211 153 153 161 159 135 137 134 140 142 132 104 132 133 133 125 125 120 129 129 120 106 83 52 25
185 178 211 121 178 260 337 352 183 248 300 282 304 304 297 268 274 273 223 225 160 150 154 156 130 115 128 141 138 135 126 142 124 128 126 122 130 129 123 107 86 65 47 31
239 192 195 186 219 236 298 253 263 199 273 285 270 292 293 291 300 217 197 176 226 157 151 148 137 124 111 119 139 120 130 134 135 127 124 123 118 113 104 92 76 61 46 28
255 163 202 22 284 255 300 234 234 216 249 282 300 297 284 291 315 215 176 169 152 161 144 135 140 127 117 134 134 136 140 139 133 128 128 126 118 107 96 89 83 70 51 36
213 152 212 253 289 304 276 241 201 257 257 267 285 272 280 316 351 209 178 151 142 139 133 144 144 137 135 148 151 155 155 153 145 139 132 124 117 114 107 94 78 65 53 39
182 206 211 255 230 218 258 273 278 273 296 290 306 315 310 295 304 156 159 150 148 146 148 146 145 138 146 153 154 159 161 160 147 139 139 135 129 121 108 93 83 69 60 46